Location: Udine
(46.0620°N, 13.2420°E)
Time: 09:22:54
(UTC+02:00)

ISS - Visible Passes

Search period start: 08 May 2021 00:00
Search period end: 18 May 2021 00:00
Orbit: 418 x 421 km, 51.6° (Epoch: 08 May)

Date Brightness Start Highest point End Pass type
(mag) Time Alt. Az. Time Alt. Az. Time Alt. Az.
08 May -2.7 02:49:24 41° NNW 02:49:33 41° NNW 02:52:47 10° ENE visible
08 May -1.9 04:23:49 10° WNW 04:26:53 31° N 04:29:57 10° ENE visible
09 May -1.9 02:03:26 30° NE 02:03:26 30° NE 02:05:22 10° ENE visible
09 May -1.9 03:36:22 11° WNW 03:39:18 30° N 03:42:22 10° ENE visible
10 May -0.9 01:17:27 14° ENE 01:17:27 14° ENE 01:17:57 10° ENE visible
10 May -2.0 02:50:22 23° NW 02:51:44 31° N 02:54:49 10° ENE visible
10 May -2.3 04:25:52 10° WNW 04:29:04 39° NNE 04:32:17 10° E visible
11 May -2.1 02:04:21 34° N 02:04:21 34° N 02:07:20 10° ENE visible
11 May -2.0 03:38:25 10° WNW 03:41:32 33° N 03:44:39 10° ENE visible
12 May -1.5 01:18:16 23° NE 01:18:16 23° NE 01:19:52 10° ENE visible
12 May -1.9 02:51:12 12° WNW 02:53:58 31° N 02:57:01 10° ENE visible
12 May -3.3 04:27:48 10° WNW 04:31:10 66° NNE 04:34:32 10° ESE visible
13 May -0.9 00:32:07 12° ENE 00:32:07 12° ENE 00:32:27 10° ENE visible
13 May -1.8 02:05:02 22° NW 02:06:23 30° N 02:09:26 10° ENE visible
13 May -2.8 03:40:23 10° WNW 03:43:41 49° NNE 03:46:58 10° E visible
14 May -1.9 01:18:38 31° NNW 01:18:48 31° N 01:21:53 10° ENE visible
14 May -2.3 02:52:56 10° WNW 02:56:09 39° NNE 02:59:22 10° E visible
14 May -3.7 04:29:45 10° WNW 04:33:05 56° SSW 04:36:24 10° SE visible
14 May -1.9 21:16:20 10° SSE 21:17:53 13° SE 21:19:27 10° ESE visible
14 May -3.9 22:50:51 10° SW 22:54:12 76° SSE 22:55:41 31° ENE visible
15 May -2.1 00:28:06 10° W 00:31:14 35° N 00:34:23 10° ENE visible
15 May -2.0 02:05:29 10° WNW 02:08:36 33° N 02:11:43 10° ENE visible
15 May -3.9 03:42:17 10° WNW 03:45:41 85° SSW 03:49:03 10° ESE visible
15 May -3.6 22:03:33 10° SW 22:06:49 49° SE 22:10:05 10° ENE visible
15 May -2.5 23:40:29 10° W 23:43:42 41° NNW 23:46:55 10° ENE visible
16 May -1.8 01:17:58 10° WNW 01:21:02 31° N 01:24:05 10° ENE visible
16 May -3.4 02:54:51 10° WNW 02:58:14 67° NNE 03:01:36 10° ESE visible
16 May -2.6 04:32:04 10° W 04:34:48 23° SW 04:37:30 10° SSE visible
16 May -3.0 21:16:28 10° SSW 21:19:28 31° SE 21:22:30 10° ENE visible
16 May -3.0 22:52:52 10° W 22:56:10 53° NNW 22:59:29 10° ENE visible
17 May -1.8 00:30:24 10° WNW 00:33:27 30° N 00:36:30 10° ENE visible
17 May -2.9 02:07:26 10° WNW 02:10:44 49° NNE 02:14:01 10° E visible
17 May -3.2 03:44:22 10° WNW 03:47:29 35° SW 03:50:36 10° SSE visible
17 May -3.5 22:05:20 10° WSW 22:08:42 73° NNW 22:12:04 10° ENE visible
17 May -1.9 23:42:48 10° WNW 23:45:52 31° N 23:48:56 10° ENE visible
